When you browse on this site, cookies collect data to enhance your experience and personalize the content and advertising you see.
Visit our Privacy Policy to learn more. By continuing to use the site, you agree to this use of cookies and data.
  • In Deutschland
  • Länderverzeichnis
  • Für 7 Tage
  • Wassertemperatur
  • Wetterkarte
  • Widgets
  • user-avatar
    Anmelden

    Stündliche Wetter Braunschweig

    Heute, 15 September, Sonntag

    Zeit Temperatur Niederschläge Wind Luftdruck Luftfeuchtigkeit
    00:00 +12°C° 0 mm 2 m/S 763 mmHg 69%
    01:00 +12°C° 0 mm 2 m/S 763 mmHg 72%
    02:00 +12°C° 0 mm 2 m/S 762 mmHg 73%
    03:00 +12°C° 0 mm 2 m/S 761 mmHg 75%
    04:00 +12°C° 0 mm 2 m/S 761 mmHg 77%
    05:00 +11°C° 0 mm 3 m/S 761 mmHg 76%
    06:00 +11°C° 0 mm 3 m/S 760 mmHg 75%
    07:00 +12°C° 0 mm 4 m/S 760 mmHg 73%
    08:00 +14°C° 0 mm 4 m/S 760 mmHg 64%
    09:00 +16°C° 0 mm 5 m/S 760 mmHg 55%
    10:00 +19°C° 0 mm 6 m/S 759 mmHg 46%
    11:00 +20°C° 0 mm 6 m/S 759 mmHg 43%
    12:00 +21°C° 0 mm 6 m/S 759 mmHg 41%
    13:00 +22°C° 0 mm 6 m/S 758 mmHg 38%
    14:00 +22°C° 0 mm 6 m/S 758 mmHg 39%
    15:00 +22°C° 0 mm 6 m/S 758 mmHg 40%
    16:00 +22°C° 0 mm 6 m/S 758 mmHg 41%
    17:00 +21°C° 0 mm 5 m/S 758 mmHg 49%
    18:00 +19°C° 0 mm 4 m/S 757 mmHg 56%
    19:00 +17°C° 0 mm 3 m/S 757 mmHg 63%
    20:00 +17°C° 0 mm 3 m/S 757 mmHg 67%
    21:00 +17°C° 0 mm 3 m/S 757 mmHg 70%
    22:00 +17°C° 0 mm 3 m/S 757 mmHg 74%
    23:00 +17°C° 0 mm 3 m/S 758 mmHg 75%

    Morgen, 16 September, Montag

    Zeit Temperatur Niederschläge Wind Luftdruck Luftfeuchtigkeit
    00:00 +16°C° 0 mm 2 m/S 758 mmHg 77%
    01:00 +16°C° 0 mm 2 m/S 758 mmHg 78%
    02:00 +15°C° 0.3 mm 2 m/S 758 mmHg 81%
    03:00 +14°C° 0.3 mm 1 m/S 757 mmHg 84%
    04:00 +14°C° 0.3 mm 1 m/S 757 mmHg 87%
    05:00 +13°C° 0.6 mm 1 m/S 757 mmHg 89%
    06:00 +13°C° 0.6 mm 1 m/S 757 mmHg 91%
    07:00 +13°C° 0.6 mm 1 m/S 756 mmHg 93%
    08:00 +13°C° 0.8 mm 1 m/S 756 mmHg 93%
    09:00 +13°C° 0.8 mm 1 m/S 756 mmHg 93%
    10:00 +12°C° 0.8 mm 0 m/S 756 mmHg 93%
    11:00 +13°C° 0.9 mm 1 m/S 756 mmHg 93%
    12:00 +13°C° 0.9 mm 1 m/S 756 mmHg 94%
    13:00 +13°C° 0.9 mm 1 m/S 756 mmHg 94%
    14:00 +13°C° 0.4 mm 1 m/S 756 mmHg 94%
    15:00 +13°C° 0.4 mm 2 m/S 756 mmHg 94%
    16:00 +13°C° 0.4 mm 2 m/S 755 mmHg 94%
    17:00 +12°C° 0 mm 2 m/S 755 mmHg 94%
    18:00 +12°C° 0 mm 2 m/S 756 mmHg 94%
    19:00 +12°C° 0 mm 2 m/S 756 mmHg 95%
    20:00 +12°C° 0 mm 2 m/S 756 mmHg 94%
    21:00 +12°C° 0 mm 2 m/S 756 mmHg 93%
    22:00 +12°C° 0 mm 2 m/S 757 mmHg 92%
    23:00 +12°C° 0 mm 2 m/S 757 mmHg 89%

    übermorgen, 17 September, Dienstag

    Zeit Temperatur Niederschläge Wind Luftdruck Luftfeuchtigkeit
    00:00 +12°C° 0 mm 2 m/S 757 mmHg 87%
    01:00 +12°C° 0 mm 2 m/S 757 mmHg 85%
    02:00 +11°C° 0 mm 3 m/S 757 mmHg 84%
    03:00 +10°C° 0 mm 3 m/S 756 mmHg 83%
    04:00 +10°C° 0 mm 3 m/S 756 mmHg 82%
    05:00 +10°C° 0 mm 4 m/S 756 mmHg 81%
    06:00 +10°C° 0 mm 4 m/S 756 mmHg 80%
    07:00 +9°C° 0 mm 5 m/S 756 mmHg 79%
    08:00 +10°C° 0 mm 6 m/S 756 mmHg 76%
    09:00 +11°C° 0 mm 7 m/S 756 mmHg 72%
    10:00 +12°C° 0 mm 7 m/S 756 mmHg 69%
    11:00 +13°C° 0.1 mm 8 m/S 756 mmHg 65%
    12:00 +13°C° 0.1 mm 8 m/S 756 mmHg 61%
    13:00 +13°C° 0.1 mm 8 m/S 756 mmHg 57%
    14:00 +13°C° 0 mm 8 m/S 756 mmHg 56%
    15:00 +13°C° 0 mm 8 m/S 756 mmHg 56%
    16:00 +12°C° 0 mm 8 m/S 756 mmHg 55%
    17:00 +11°C° 0 mm 7 m/S 756 mmHg 60%
    18:00 +10°C° 0 mm 6 m/S 756 mmHg 65%
    19:00 +9°C° 0 mm 5 m/S 756 mmHg 70%
    20:00 +8°C° 0 mm 5 m/S 757 mmHg 73%
    21:00 +8°C° 0 mm 4 m/S 757 mmHg 76%
    22:00 +7°C° 0 mm 4 m/S 758 mmHg 79%
    23:00 +7°C° 0 mm 4 m/S 758 mmHg 81%

    18 September, Mittwoch

    Zeit Temperatur Niederschläge Wind Luftdruck Luftfeuchtigkeit
    00:00 +7°C° 0 mm 4 m/S 758 mmHg 84%
    01:00 +6°C° 0 mm 4 m/S 758 mmHg 86%
    02:00 +6°C° 0 mm 4 m/S 758 mmHg 88%
    03:00 +7°C° 0 mm 3 m/S 758 mmHg 90%
    04:00 +5°C° 0 mm 3 m/S 758 mmHg 91%
    05:00 +7°C° 0 mm 3 m/S 759 mmHg 89%
    06:00 +7°C° 0 mm 3 m/S 759 mmHg 87%
    07:00 +7°C° 0 mm 3 m/S 759 mmHg 86%
    08:00 +8°C° 0.1 mm 4 m/S 759 mmHg 77%
    09:00 +11°C° 0.1 mm 4 m/S 759 mmHg 68%
    10:00 +13°C° 0.1 mm 5 m/S 760 mmHg 59%
    11:00 +13°C° 0.1 mm 5 m/S 759 mmHg 56%
    12:00 +14°C° 0.1 mm 5 m/S 759 mmHg 53%
    13:00 +15°C° 0.1 mm 5 m/S 759 mmHg 50%
    14:00 +14°C° 0.1 mm 5 m/S 759 mmHg 52%
    15:00 +14°C° 0.1 mm 5 m/S 759 mmHg 55%
    16:00 +14°C° 0.1 mm 5 m/S 759 mmHg 57%
    17:00 +12°C° 0.1 mm 5 m/S 759 mmHg 64%
    18:00 +11°C° 0.1 mm 4 m/S 759 mmHg 71%
    19:00 +10°C° 0.1 mm 3 m/S 759 mmHg 78%
    20:00 +9°C° 0 mm 3 m/S 760 mmHg 81%
    21:00 +8°C° 0 mm 3 m/S 760 mmHg 85%
    22:00 +8°C° 0 mm 3 m/S 760 mmHg 88%
    23:00 +7°C° 0 mm 3 m/S 760 mmHg 89%

    19 September, Donnerstag

    Zeit Temperatur Niederschläge Wind Luftdruck Luftfeuchtigkeit
    00:00 +7°C° 0 mm 3 m/S 760 mmHg 90%
    01:00 +5°C° 0 mm 3 m/S 760 mmHg 91%
    02:00 +5°C° 0 mm 3 m/S 760 mmHg 91%
    03:00 +5°C° 0 mm 3 m/S 760 mmHg 90%
    04:00 +5°C° 0 mm 3 m/S 760 mmHg 90%
    05:00 +5°C° 0 mm 4 m/S 761 mmHg 88%
    06:00 +6°C° 0 mm 4 m/S 761 mmHg 87%
    07:00 +6°C° 0 mm 4 m/S 761 mmHg 85%
    08:00 +8°C° 0 mm 4 m/S 761 mmHg 80%
    09:00 +10°C° 0 mm 4 m/S 762 mmHg 75%
    10:00 +12°C° 0 mm 4 m/S 762 mmHg 70%
    11:00 +13°C° 0 mm 4 m/S 762 mmHg 61%
    12:00 +14°C° 0 mm 4 m/S 762 mmHg 52%
    13:00 +16°C° 0 mm 3 m/S 762 mmHg 44%
    14:00 +16°C° 0 mm 3 m/S 762 mmHg 43%
    15:00 +16°C° 0 mm 3 m/S 762 mmHg 42%
    16:00 +16°C° 0 mm 3 m/S 762 mmHg 41%
    17:00 +14°C° 0 mm 3 m/S 763 mmHg 52%
    18:00 +12°C° 0 mm 3 m/S 763 mmHg 63%
    19:00 +10°C° 0 mm 3 m/S 764 mmHg 74%
    20:00 +9°C° 0 mm 2 m/S 764 mmHg 78%
    21:00 +9°C° 0 mm 2 m/S 765 mmHg 82%
    22:00 +9°C° 0 mm 1 m/S 765 mmHg 86%
    23:00 +8°C° 0 mm 1 m/S 766 mmHg 86%

    20 September, Freitag

    Zeit Temperatur Niederschläge Wind Luftdruck Luftfeuchtigkeit
    00:00 +8°C° 0 mm 1 m/S 766 mmHg 87%
    01:00 +6°C° 0 mm 0 m/S 766 mmHg 87%
    02:00 +6°C° 0 mm 0 m/S 766 mmHg 87%
    03:00 +6°C° 0 mm 0 m/S 766 mmHg 87%
    04:00 +5°C° 0 mm 0 m/S 766 mmHg 87%
    05:00 +6°C° 0 mm 0 m/S 766 mmHg 86%
    06:00 +6°C° 0 mm 0 m/S 766 mmHg 85%
    07:00 +6°C° 0 mm 0 m/S 766 mmHg 83%
    08:00 +8°C° 0 mm 0 m/S 766 mmHg 75%
    09:00 +10°C° 0 mm 0 m/S 767 mmHg 66%
    10:00 +13°C° 0 mm 0 m/S 767 mmHg 57%
    11:00 +14°C° 0 mm 0 m/S 766 mmHg 52%
    12:00 +15°C° 0 mm 1 m/S 766 mmHg 46%
    13:00 +16°C° 0 mm 1 m/S 766 mmHg 40%
    14:00 +16°C° 0 mm 1 m/S 765 mmHg 40%
    15:00 +18°C° 0 mm 1 m/S 765 mmHg 40%
    16:00 +17°C° 0 mm 2 m/S 764 mmHg 40%
    17:00 +15°C° 0 mm 1 m/S 764 mmHg 46%
    18:00 +13°C° 0 mm 1 m/S 764 mmHg 51%
    19:00 +10°C° 0 mm 0 m/S 764 mmHg 57%
    20:00 +10°C° 0 mm 0 m/S 764 mmHg 58%
    21:00 +11°C° 0 mm 1 m/S 764 mmHg 60%
    22:00 +10°C° 0 mm 1 m/S 763 mmHg 61%
    23:00 +10°C° 0 mm 1 m/S 763 mmHg 62%
    Mehr zeigen